Regional Weather Roundup
Issued by NWS

Home | Current Version | Previous Version | Text Only | Print | Product List | Glossary On
Versions: 1 2 3 4 5 6 7 8 9 10 11 12 13 14 15 16 17 18 19 20 21 22 23 24 25 26 27 28 29 30 31 32 33 34 35 36 37 38 39 40 41 42 43 44 45 46 47 48 49 50
000
ASUS43 KMKX 010821
RWRWI

WISCONSIN REGIONAL WEATHER ROUNDUP
NATIONAL WEATHER SERVICE MILWAUKEE/SULLIVAN WI
300 AM CDT FRI AUG 01 2014

NOTE: "FAIR" INDICATES FEW OR NO CLOUDS BELOW 12,000 FEET WITH NO
SIGNIFICANT WEATHER AND/OR OBSTRUCTIONS TO VISIBILITY.

WIZ001-002-006>008-014>016-023>028-010900-
NORTHWEST WISCONSIN

CITY           SKY/WX    TMP DP  RH WIND       PRES   REMARKS
SUPERIOR ARPT  FOG       55  55  99 CALM      29.99S VSB 1/2
ASHLAND        CLEAR     55  53  93 W5        30.00S
HAYWARD        FOG       54  54 100 CALM      30.02S VSB 1/4
SIREN          CLEAR     58  56  95 CALM      30.01S
RICE LAKE      FOG       59  58  96 CALM      30.03S VSB 3/4
LADYSMITH      FOG       58  56  96 CALM      30.03S VSB 3/4
EAU CLAIRE     MOCLDY    62  60  93 NE5       30.01S
MENOMONIE      PTSUNNY   63  60  90 CALM      30.02S
NEW RICHMOND   CLEAR     60  58  95 CALM      30.02S
OSCEOLA        CLEAR     59  59  99 CALM      30.03F
$$

WIZ003>005-009-010-017-018-010900-
NORTH CENTRAL WISCONSIN

CITY           SKY/WX    TMP DP  RH WIND       PRES   REMARKS
WOODRUFF       CLEAR     52  44  74 CALM      30.02S
RHINELANDER    FOG       49  49 100 CALM      30.03R VSB 1/4
EAGLE RIVER    PTCLDY    49  49 100 CALM      30.01F FOG
LAND O LAKES     N/A     47  47  99 CALM      30.02F FOG
PHILLIPS       CLEAR     54  54  99 CALM      30.02S
TOMAHAWK       CLEAR     50  49  97 CALM      30.03R FOG
MEDFORD        FOG       56  56 100 CALM      30.02S VSB 3/4
MERRILL        FOG       52  52 100 CALM      30.02R VSB 1/4
$$

WIZ029-030-035-036-043>047-010900-
CENTRAL WISCONSIN

CITY           SKY/WX    TMP DP  RH WIND       PRES   REMARKS
WAUSAU         PTCLDY    60  59  96 CALM      30.01S
MOSINEE        FOG       57  57 100 CALM      30.03S VSB 3/4
MARSHFIELD     PTCLDY    63  58  83 W7        30.02R
STEVENS POINT  PTCLDY    56  55  98 CALM      30.02S
WAUPACA        PTCLDY    60  58  93 CALM      30.01S
WAUTOMA        MOCLDY    57  55  93 CALM      30.02S
WISC RAPIDS    MOCLDY    60  58  92 S3        30.03R
CAMP DOUGLAS   PTCLDY    55  55 100 CALM      30.02S
$$

WIZ011>013-019>022-031-037>040-048>050-010900-
NORTHEAST WISCONSIN

CITY           SKY/WX    TMP DP  RH WIND       PRES   REMARKS
ANTIGO         FOG       51  51 100 CALM      30.02S VSB 1/4
STURGEON BAY   CLEAR     57  55  94 CALM      29.99S
GREEN BAY      CLEAR     59  57  93 CALM      30.00S
MANITOWOC      CLEAR     61  59  94 CALM      30.01R FOG
APPLETON       CLEAR     61  57  88 W9        30.01S
CLINTONVILLE   CLEAR     54  54 100 CALM      30.01S
OSHKOSH        CLEAR     64  60  87 W3        30.00S
$$

WIZ032>034-041-042-053>061-010900-
SOUTHWEST WISCONSIN

CITY           SKY/WX    TMP DP  RH WIND       PRES   REMARKS
LA CROSSE      CLEAR     65  62  90 S6        30.02S
SPARTA         CLEAR     54  52  95 CALM      30.03S
VIROQUA        FAIR      61  57  87 W3        30.05S
BOSCOBEL       PTCLDY    58  57  97 SW3       30.05R
PRAIRIE DU CHI CLEAR     58  56  93 CALM      30.04S
PLATTEVILLE    FAIR      62  58  88 CALM      30.07S
$$

WIZ056-057-062-063-064-067-068-010900-
SOUTH CENTRAL WISCONSIN

CITY           SKY/WX    TMP DP  RH WIND       PRES   REMARKS
BARABOO/DELLS  CLEAR     58  56  92 CALM      30.03S
LONE ROCK      FOG       59  55  87 CALM      30.04S VSB 1/4
WATERTOWN      CLEAR     57  56  95 CALM      30.03S
MADISON        CLEAR     61  57  87 CALM      30.04R
MIDDLETON      FAIR      58  58  97 CALM      30.05S
MONROE         CLEAR     64  59  82 W10       30.06R
JANESVILLE     CLEAR     59  55  88 CALM      30.05S
$$

WIZ051-052-058>065-066-070>072-010900-
SOUTHEAST WISCONSIN

CITY           SKY/WX    TMP DP  RH WIND       PRES   REMARKS
MILWAUKEE      PTCLDY    67  58  72 SW5       30.03R
WAUKESHA       CLEAR     59  55  88 CALM      30.05R
MILWAUKEE/TIMM CLEAR     63  55  77 SW3       30.04R
RACINE         CLEAR     66  57  72 W6        30.05R
BURLINGTON     CLEAR     56  55  95 SW5       30.05R
KENOSHA        CLEAR     60  57  89 W5        30.04S
FOND DU LAC    CLEAR     63  58  83 SW6       30.02R
SHEBOYGAN      CLEAR     57  56  96 CALM      30.01S
WEST BEND      CLEAR     59  55  88 CALM      30.03R
JUNEAU         CLEAR     59  56  91 S3        30.04S
$$

LSZ147-162-010900-
LAKE SUPERIOR

STATION/POSITION TIME  TEMP    WIND        PRES    WAVE
                       AIR SEA DIR/SP/G            HT/PER
                 (UTC) (F)     (DEG/KT/KT) (MB)    (FT/S)
W MID LAKE BUOY  0750   46 44   20/  8/ 10 1015.8R   0
PORT WING        0700   57     150/  2/  4 1015.9S
SAXON HARBOR     0740          190/  3/  5 1015.6S
$$

LMZ867-665-643>646-010900-
LAKE MICHIGAN

STATION/POSITION TIME  TEMP    WIND        PRES    WAVE
                       AIR SEA DIR/SP/G            HT/PER
                 (UTC) (F)     (DEG/KT/KT) (MB)    (FT/S)
N MID LAKE BUOY  0750   57 54  180/  4/  4 1015.1F   1/ 4
NORTHPORT PIER   0700   62     150/  1/  2 1015.6S
SISTER BAY       0741   64     120/  2/  5   N/A
ALGOMA LAKESHORE 0706          350/  6/  6   N/A
KEWAUNEE LAKESHO 0800   61     310/  3/  5 1014.8F
SHEBOYGAN LAKESH 0800   67     250/  8/  9 1016.0R
PORT WASHINGTON  0740   67     280/  6/  8 1016.6S
ATWATER BUOY     0800   68     240/  8     1017.5R
MILWAUKEE LAKESH 0800   68     250/  7/  8   N/A
S MID LAKE BUOY  0750   65 62  230/  8/ 10 1016.7R   0
KENOSHA   LAKESH 0800   68     250/  9/ 11 1016.9R
$$

TC  - TEMPERATURE IN CELSIUS
VSB - VISIBILITY IN STATUTE MILES
WCI - WIND CHILL INDEX
HX  - HEAT INDEX



USA.gov is the U.S. government's official web portal to all federal, state and local government web resources and services.